Regional Weather Roundup
Issued by NWS Newport/Morehead, NC

Current Version | Previous Version | Graphics & Text | Print | Product List | Glossary Off
Versions: 1 2 3 4 5 6 7 8 9 10 11 12 13 14 15 16 17 18 19 20 21 22 23 24 25 26 27 28 29 30 31 32 33 34 35 36 37 38 39 40 41 42 43 44 45 46 47 48 49 50

000
ASUS42 KMHX 211225
RWRMHX
WEATHER ROUNDUP FOR EASTERN NORTH CAROLINA
NATIONAL WEATHER SERVICE NEWPORT/MOREHEAD CITY NC
700 AM EST TUE NOV 21 2017

NOTE: "FAIR" INDICATES FEW OR NO CLOUDS BELOW 12,000 FEET
WITH NO SIGNIFICANT WEATHER AND/OR OBSTRUCTIONS TO VISIBILITY

NCZ015>017-031-032-045>047-102-103-211300-
NORTH COAST

CITY           SKY/WX    TMP DP  RH WIND       PRES   REMARKS
EDENTON        CLEAR     34  33  95 CALM      30.27R
ELIZABETH CITY CLEAR     37  37 100 S3        30.25S
KITTY HAWK     SUNNY     45  37  71 CALM      30.25R
MANTEO         CLEAR     35  35  99 CALM      30.26S

$$

NCZ045>047-081-094-103-104-211300-
CENTRAL COAST

CITY           SKY/WX    TMP DP  RH WIND       PRES   REMARKS
FRISCO         CLEAR     49  47  93 NE6       30.25S

$$

NCZ095-097-098-100-101-211300-
SOUTHERN COAST

CITY           SKY/WX    TMP DP  RH WIND       PRES   REMARKS
BEAUFORT       CLEAR     45  43  93 NE3       30.25S
CEDAR ISLAND   NOT AVBL
JACKSONVILLE   CLOUDY    34  34 100 CALM      30.25R
PINEY ISLAND   NOT AVBL
WILMINGTON     PTCLDY    39  36  89 CALM      30.24S


$$

NCZ011>013-027>030-043-044-078>080-089-090>093-098-211300-
COASTAL PLAIN

CITY           SKY/WX    TMP DP  RH WIND       PRES   REMARKS
AHOSKIE        CLEAR     28  28 100 CALM      30.26S
CLINTON        CLOUDY    32  32 100 CALM      30.26S
ELIZABETHTOWN  NOT AVBL
GOLDSBORO      CLOUDY    30  27  88 CALM      30.24S
GREENVILLE     CLOUDY    30  30 100 CALM      30.27R FOG
HAVELOCK       CLEAR     36  33  89 CALM      30.26S
KENANSVILLE    CLOUDY    30  28  93 CALM      30.26S
KINSTON        CLOUDY    30  28  93 CALM      30.27R
NEW BERN       CLEAR     34  34 100 CALM      30.26S FOG
RICHLANDS      CLOUDY    31  30  96 CALM      30.26R
ROCKY MOUNT    CLOUDY    30  29  96 CALM      30.26R
WASHINGTON     CLOUDY    32  30  93 CALM      30.26S
WHITEVILLE     PTCLDY    36  35  95 CALM      30.23F

$$

AMZ130-135-150-152-154-156-158-170-250-252-270-ANZ085-086-088-633-658-670-211300-
MARINE OBSERVATIONS

STATION/POSITION TIME  TEMP    WIND        PRES    WAVE   SWELL
                       AIR SEA DIR/SP/G            HT/PER HT/PER
                 (UTC) (F)     (DEG/KT/KT) (MB)    (FT/S) (FT/S)
CHESAPEAKE LIGHT NOT AVBL
64 E VA BEACH    1150   57 60  230/ 12/ 14 1024.5    2/ 4   2/ 6
DUCK             1200   49 60  210/  6/  6 1024.0
2 E DUCK         1200      61                N/A     1/ 7
OREGON INLET     1200   47 53  350/  1/  2 1024.4
13E OREGON INLT  1148      62                N/A     2/ 6   2/ 6
HATTERAS CG      1200   52 58   40/  3/  4 1024.1
DIAMOND BUOY     1210   63 76  360/  6/ 10 1024.5
CAPE LOOKOUT     1200           20/  8/ 10 1024.3
BEAUFORT LAB     1200   47 58   20/  5/  6 1024.2
30 SE NEW RVR IN 1208   62 67   60/ 10/ 12 1023.9
30 SE NEW RVR IN 1200      67                N/A     2/ 9
27 SE WRIGHTSVLE 1108   63 68   50/ 12/ 16 1022.9
5 SE WRIGHTSVLE  1208   56 64   20/  8/ 12 1023.5
225 S CAPE HAT   1150   70 76  110/ 14/ 19 1022.6    5/ 8   3/ 8
41 SE CHARLESTON 1210   71 73  120/ 14/ 16 1021.1

$$




USA.gov is the U.S. government's official web portal to all federal, state and local government web resources and services.